Regional Weather Roundup
Issued by NWS

Home | Current Version | Previous Version | Text Only | Print | Product List | Glossary Off
Versions: 1 2 3 4 5 6 7 8 9 10 11 12 13 14 15 16 17 18 19 20 21 22 23 24 25 26 27 28 29 30 31 32 33 34 35 36 37 38 39 40 41 42 43 44 45 46 47 48 49 50

000
ASUS45 KBOU 011007
RWRCO

WEATHER ROUNDUP FOR COLORADO
NATIONAL WEATHER SERVICE DENVER/BOULDER CO
400 AM MDT MON SEP 01 2014

NOTE: "FAIR" INDICATES FEW OR NO CLOUDS BELOW 12000 FEET WITH NO
SIGNIFICANT WEATHER AND/OR OBSTRUCTIONS TO VISIBILITY.

COZ001>005-013-030-031-011100-
...NORTHWEST COLORADO...

CITY           SKY/WX    TMP DP  RH WIND       PRES   REMARKS
CRAIG          CLEAR     43  41  93 CALM      30.14S
HAYDEN         CLEAR     45  36  70 E5        30.15S
MEEKER         CLEAR     43  38  82 E5        30.16R
MOUNT WERNER   NOT AVBL
STEAMBOAT SPGS CLEAR     42  40  93 CALM      30.16S
WALDEN         PTCLDY    36  34  93 SE7       30.18F
$$

COZ006>008-011-011100-
...WEST CENTRAL VALLEYS...

CITY           SKY/WX    TMP DP  RH WIND       PRES   REMARKS
GRAND JUNCTION CLEAR     56  38  50 E3        30.02S
MONTROSE       CLEAR     51  40  65 SE8       30.12R
EAGLE          CLEAR     46  43  87 SE3       30.17S
RIFLE          CLEAR     51  42  71 CALM      30.09R
DELTA          CLEAR     58  38  47 NE6       30.07R HAZE
NUCLA          CLEAR     55  34  44 E10       30.13S
$$

COZ017>023-064>068-011100-
...SOUTHWEST COLORADO...

CITY           SKY/WX    TMP DP  RH WIND       PRES   REMARKS
DURANGO        CLEAR     47  36  65 E3        30.12S
CORTEZ         CLEAR     49  41  74 NE6       30.09S
PAGOSA SPRINGS NOT AVBL
TELLURIDE      CLEAR     48  34  57 SE7       30.31S
WOLF CREEK PAS CLEAR     43  28  56 SW20G28   30.45S
$$

COZ009-010-012-014-032>034-037-058>063-011100-
...CENTRAL COLORADO...

CITY           SKY/WX    TMP DP  RH WIND       PRES   REMARKS
ASPEN          CLEAR     46  37  71 SW9       30.20S
BUENA VISTA    PTCLDY    47  33  57 CALM      30.17F
COPPER MTN     CLEAR     45  28  53 SW7G26    30.41R
BERTHOUD PASS  FOG       32  32 100 NW15G25   30.40S VSB 1/2 WCI  22
COTTONWOOD PAS CLEAR     55  27  33 SW5       30.28F
GUNNISON       CLEAR     43  36  75 CALM      30.23R
KREMMLING      CLEAR     37  36  93 CALM      30.20S
LEADVILLE      PTCLDY    45  31  58 NE10G21   30.28F
SALIDA         CLEAR     51  42  70 SE6       30.22F
SUNLIGHT       CLEAR     41  32  70 CALM      30.35F
WILKERSON PASS NOT AVBL
$$

COZ069>075-011100-
...SAN LUIS VALLEY/SANGRE DE CRISTO MOUNTAINS...

CITY           SKY/WX    TMP DP  RH WIND       PRES   REMARKS
ALAMOSA        CLEAR     47  34  60 SE7       30.15S
LA VETA PASS   NOT AVBL
SAGUACHE       NOT AVBL
$$

COZ035-036-038>040-011100-
...NORTHERN COLORADO FRONT RANGE...

CITY           SKY/WX    TMP DP  RH WIND       PRES   REMARKS
DENVER INTL AP PTCLDY    51  45  79 S9        30.07F
DMNS CITY PARK   N/A     51  45  79 SW2       30.07S
AURORA         PTCLDY    52  45  77 SE6       30.09S
FRONT RANGE AP NOT AVBL
ERIE MUNI ARPT CLEAR     51  49  93 CALM      30.07S
BOULDER MUN AP CLEAR     52  50  93 CALM      30.07S
CENTENNIAL     CLOUDY    55  42  61 CALM      30.09S
BROOMFIELD     MOCLDY    52  46  82 SW5       30.09F
FORT COLLINS   PTCLDY    54  46  76 S5        30.07S
LONGMONT       PTCLDY    50  47  90 CALM      30.07S
$$

COZ041-046-047-076>085-087-088-011100-
...PIKES PEAK/PALMER DIVIDE AND SOUTHERN FOOTHILLS...

CITY           SKY/WX    TMP DP  RH WIND       PRES   REMARKS
COLO. SPRINGS  MOCLDY    57  48  72 SE6       30.11S
A. F. ACADEMY  PTCLDY    53  47  81 N5        30.11F
ELLICOTT       MOCLDY    55  49  80 E9        30.10R
FALCON         CLOUDY    55  50  83 CALM      30.14F
FORT CARSON    PTCLDY    53  48  82 SE5       30.09R
LIMON          CLOUDY    53  46  77 NW5       30.07S
MONUMENT HILL  PTCLDY    46  45  93 SE6       30.13S
TRINIDAD       CLEAR     52  45  77 NW8       30.06R
$$

COZ042>045-048>051-090-091-011100-
...NORTHEAST COLORADO...

CITY           SKY/WX    TMP DP  RH WIND       PRES   REMARKS
GREELEY ARPT   PTCLDY    54  43  66 W3        30.05S
AKRON          CLOUDY    54  47  77 NW5       30.03R
BURLINGTON     CLEAR     53  49  86 NW7       30.00S
WRAY             N/A     52  49  89 W5        29.99S
STERLING       PTCLDY    54  52  94 W6        29.99S
HOLYOKE        CLEAR     54  50  87 W6        29.99R
FORT MORGAN    MOCLDY    53  46  79 SW3       30.04R
$$

COZ086-089-092>099-011100-
...SOUTHEAST COLORADO...

CITY           SKY/WX    TMP DP  RH WIND       PRES   REMARKS
PUEBLO         CLEAR     59  47  64 NW3       30.02S
LA JUNTA       CLEAR     56  50  80 N9        30.01R
LAMAR          CLEAR     54  51  90 CALM      29.96R
SPRINGFIELD      N/A     54  51  90 N8        29.97R
$$



USA.gov is the U.S. government's official web portal to all federal, state and local government web resources and services.